TimeMDT,TemperatureF,Dew PointF,Humidity,Sea Level PressureIn,VisibilityMPH,Wind Direction,Wind SpeedMPH,Gust SpeedMPH,PrecipitationIn,Events,Conditions,WindDirDegrees,DateUTC
12:53 AM,72.0,64.9,78,29.84,10.0,ESE,4.6,-,N/A,,Clear,110,2013-08-06 06:53:00
1:53 AM,71.1,64.9,81,29.81,10.0,Calm,Calm,-,N/A,,Clear,0,2013-08-06 07:53:00
2:53 AM,71.1,66.0,84,29.78,10.0,Calm,Calm,-,N/A,,Clear,0,2013-08-06 08:53:00
3:53 AM,70.0,66.9,90,29.76,9.0,ENE,4.6,-,N/A,,Clear,70,2013-08-06 09:53:00
4:53 AM,69.1,64.9,87,29.77,9.0,WSW,3.5,-,N/A,,Clear,240,2013-08-06 10:53:00
5:53 AM,68.0,64.9,90,29.77,7.0,East,4.6,-,N/A,,Clear,80,2013-08-06 11:53:00
6:53 AM,69.1,66.0,90,29.80,6.0,SSW,4.6,-,N/A,,Clear,210,2013-08-06 12:53:00
7:53 AM,73.0,66.9,81,29.80,6.0,WNW,6.9,-,N/A,,Haze,300,2013-08-06 13:53:00
8:53 AM,78.1,64.0,62,29.79,9.0,WNW,9.2,-,N/A,,Clear,290,2013-08-06 14:53:00
9:53 AM,81.0,63.0,54,29.79,9.0,WNW,6.9,-,N/A,,Clear,300,2013-08-06 15:53:00
10:53 AM,84.9,64.0,49,29.78,9.0,WNW,9.2,-,N/A,,Clear,300,2013-08-06 16:53:00
11:53 AM,90.0,55.0,30,29.76,10.0,NNW,5.8,-,N/A,,Clear,340,2013-08-06 17:53:00
12:53 PM,93.0,54.0,27,29.75,10.0,WNW,4.6,-,N/A,,Clear,300,2013-08-06 18:53:00
1:53 PM,93.9,55.0,27,29.72,10.0,Variable,5.8,-,N/A,,Clear,0,2013-08-06 19:53:00
2:53 PM,95.0,52.0,23,29.70,10.0,South,8.1,-,N/A,,Clear,190,2013-08-06 20:53:00
3:53 PM,95.0,53.1,24,29.69,10.0,NE,10.4,-,N/A,,Mostly Cloudy,40,2013-08-06 21:53:00
4:53 PM,89.1,57.9,35,29.71,4.0,NE,21.9,28.8,N/A,,Haze,50,2013-08-06 22:53:00
5:05 PM,87.8,59.0,38,29.88,2.0,NE,18.4,25.3,N/A,,Haze,50,2013-08-06 23:05:00
5:18 PM,87.8,60.8,40,29.89,3.0,ENE,17.3,24.2,N/A,,Haze,60,2013-08-06 23:18:00
5:43 PM,87.8,59.0,38,29.89,8.0,East,17.3,27.6,N/A,,Scattered Clouds,80,2013-08-06 23:43:00
5:50 PM,86.0,59.0,40,29.89,8.0,East,16.1,23.0,N/A,Thunderstorm,Scattered Clouds,80,2013-08-06 23:50:00
5:53 PM,84.9,61.0,44,29.73,7.0,East,15.0,23.0,N/A,Thunderstorm,Scattered Clouds,90,2013-08-06 23:53:00
6:05 PM,84.2,60.8,45,29.89,7.0,East,12.7,20.7,N/A,,Partly Cloudy,80,2013-08-07 00:05:00
6:16 PM,84.2,62.6,48,29.92,8.0,ESE,17.3,21.9,N/A,Thunderstorm,Mostly Cloudy,120,2013-08-07 00:16:00
6:31 PM,82.4,60.8,48,29.91,9.0,East,12.7,-,N/A,,Scattered Clouds,100,2013-08-07 00:31:00
6:40 PM,82.4,60.8,48,29.91,9.0,East,12.7,-,N/A,Thunderstorm,Partly Cloudy,100,2013-08-07 00:40:00
6:53 PM,82.0,61.0,49,29.77,9.0,ESE,10.4,-,N/A,Thunderstorm,Mostly Cloudy,110,2013-08-07 00:53:00
7:07 PM,80.6,62.6,54,29.92,8.0,East,11.5,-,0.00,Rain,Light Rain,80,2013-08-07 01:07:00
7:34 PM,77.0,62.6,61,29.93,9.0,NE,11.5,18.4,0.00,Thunderstorm,Mostly Cloudy,40,2013-08-07 01:34:00
7:45 PM,78.8,62.6,57,29.93,9.0,ENE,8.1,-,0.00,Thunderstorm,Mostly Cloudy,60,2013-08-07 01:45:00
7:53 PM,78.1,61.0,56,29.79,10.0,East,4.6,-,0.00,Thunderstorm,Mostly Cloudy,100,2013-08-07 01:53:00
8:08 PM,78.8,60.8,54,29.94,10.0,ESE,4.6,-,N/A,,Overcast,110,2013-08-07 02:08:00
8:53 PM,80.1,55.9,43,29.76,10.0,SSE,13.8,-,0.00,,Mostly Cloudy,150,2013-08-07 02:53:00
9:53 PM,75.9,62.1,62,29.80,10.0,WNW,6.9,-,N/A,,Clear,300,2013-08-07 03:53:00
10:53 PM,75.9,62.1,62,29.80,10.0,SW,4.6,-,N/A,,Clear,220,2013-08-07 04:53:00
11:53 PM,73.0,64.9,76,29.81,10.0,ENE,3.5,-,N/A,,Clear,70,2013-08-07 05:53:00